This is the latest recevied weather packets stored in our database for station/object KD0ISH. If no packets are shown the sender has not sent any weather packets the latest 10 day(s).
| Time | Temp. | Humidity | Pressure | Rain* | Wind** | Luminosity | Snow |
|---|---|---|---|---|---|---|---|
| 1777572424 | 17.22° C | 48% | 1019.4 hPa | 0 mm | - | 185 W/m² | - |
| 1777572120 | 16.67° C | 46% | 1019.4 hPa | 0 mm | - | 161 W/m² | - |
| 1777571815 | 16.67° C | 47% | 1019.5 hPa | 0 mm | - | 116 W/m² | - |
| 1777571512 | 17.22° C | 48% | 1019.6 hPa | 0 mm | - | 114 W/m² | - |
| 1777571208 | 17.22° C | 47% | 1019.9 hPa | 0 mm | - | 82 W/m² | - |
| 1777570904 | 17.22° C | 47% | 1019.9 hPa | 0 mm | - | 82 W/m² | - |
| 1777570600 | 16.67° C | 49% | 1020 hPa | 0 mm | - | 104 W/m² | - |
| 1777570297 | 16.67° C | 50% | 1019.9 hPa | 0 mm | - | 144 W/m² | - |
| 1777569993 | 16.67° C | 49% | 1020.1 hPa | 0 mm | - | 147 W/m² | - |
| 1777569689 | 17.22° C | 50% | 1020.3 hPa | 0 mm | - | 135 W/m² | - |
| 1777569385 | 16.67° C | 52% | 1020.3 hPa | 0 mm | - | 181 W/m² | - |
| 1777569081 | 16.11° C | 49% | 1020.3 hPa | 0 mm | - | 108 W/m² | - |
| 1777568778 | 16.11° C | 47% | 1020.3 hPa | 0 mm | - | 115 W/m² | - |
| 1777568476 | 16.67° C | 50% | 1020.5 hPa | 0 mm | - | 94 W/m² | - |
| 1777568172 | 16.67° C | 47% | 1020.6 hPa | 0 mm | - | 85 W/m² | - |
| 1777567869 | 16.67° C | 49% | 1020.4 hPa | 0 mm | - | 81 W/m² | - |
| 1777567565 | 16.11° C | 49% | 1020.3 hPa | 0 mm | - | 75 W/m² | - |
| 1777567263 | 16.11° C | 49% | 1020.6 hPa | 0 mm | - | 62 W/m² | - |
| 1777566961 | 16.11° C | 45% | 1020.8 hPa | 0 mm | - | 64 W/m² | - |
| 1777566658 | 16.11° C | 48% | 1020.9 hPa | 0 mm | - | 69 W/m² | - |
| 1777566356 | 16.11° C | 52% | 1020.7 hPa | 0 mm | - | 65 W/m² | - |
| 1777566053 | 15.56° C | 49% | 1020.6 hPa | 0 mm | - | 143 W/m² | - |
| 1777565748 | 15.56° C | 53% | 1020.9 hPa | 0 mm | - | 210 W/m² | - |
| 1777565445 | 15.56° C | 53% | 1020.8 hPa | 0 mm | - | 55 W/m² | - |
| 1777565141 | 15° C | 50% | 1020.9 hPa | 0 mm | - | 50 W/m² | - |
* Rain latest hour (hover to see other rain measurements)
** Current wind speed in m/s (hover to see current wind gust speed)